Regional Weather Roundup
Issued by NWS Nashville, TN

Home | Current Version | Previous Version | Text Only | Print | Product List | Glossary On
Versions: 1 2 3 4 5 6 7 8 9 10 11 12 13 14 15 16 17 18 19 20 21 22 23 24 25 26 27 28 29 30 31 32 33 34 35 36 37 38 39 40 41 42 43 44 45 46 47 48 49 50
000
ASUS44 KOHX 041615
RWROHX
MIDDLE TENNESSEE HOURLY WEATHER ROUNDUP
NATIONAL WEATHER SERVICE NASHVILLE TN
1000 AM CST WED MAR 04 2015

NOTE: "FAIR" INDICATES FEW OR NO CLOUDS BELOW 12,000 FEET WITH
NO SIGNIFICANT WEATHER AND/OR OBSTRUCTIONS TO VISIBILITY.

* THESE REPORTS ARE NOT UNDER NWS QUALITY CONTROL AND MAY NOT
  REPORT WEATHER SUCH AS PRECIPITATION AND FOG.


TNZ005>011-023>034-057-059-062>066-078-080-041700
...NORTHERN MIDDLE TENNESSEE...

CITY           SKY/WX    TMP DP  RH WIND       PRES   REMARKS
CLARKSVILLE    CLOUDY    42  40  92 N16       29.98R FOG
CROSSVILLE     CLOUDY    61  58  90 S7G20     29.91F
GALLATIN       PTSUNNY   52  52 100 N8G22     29.94R
DICKSON        CLOUDY    45  45 100 N9        29.94R
LIVINGSTON     CLOUDY    52  51  96 NE7       29.91F
NASHVILLE      LGT RAIN  52  51  97 N3        29.94R VSB 1
PORTLAND       CLOUDY    43  43 100 N10       29.93R
SMYRNA         HVY RAIN  52  52 100 N8        29.94R VSB 3/4
SPARTA         CLOUDY    52  52 100 N5        29.89S
$$
TNZ056-058-060-061-075>077-079-093>097-041700
...SOUTHERN MIDDLE TENNESSEE...

CITY           SKY/WX    TMP DP  RH WIND       PRES   REMARKS
COLUMBIA         N/A    N/A N/A N/A N6        29.90R
LEWISBURG      CLOUDY    67  61  81 SW13      29.88S
MCMINNVILLE    CLOUDY    64  64 100 SW13      29.89S
MURFREESBORO   CLOUDY    52  51  96 N9        29.91R
SHELBYVILLE    CLOUDY    66  64  94 S17       29.90S
TULLAHOMA      CLOUDY    64  61  88 SW17      29.92F
WINCHESTER     CLOUDY    68  61  77 SW13G26   29.93F
$$


...KEY TO REMARKS...
VSB - VISIBILITY IN MILES
WCI - WIND CHILL INDEX
HX  - HEAT INDEX



USA.gov is the U.S. government's official web portal to all federal, state and local government web resources and services.